Back to catalog

STARLINK-11539

AliveCommunicationsVLEO
NORAD 62987·PAYLOAD·🇺🇸 United States

Launched Feb 11, 2025 from Cape Canaveral Space Force Station

Loading…

Next Passes (next 24 hours)

TLE

FreshSource: CelesTrak SupGP

Epoch: Sep 14, 2026, 14:43 UTC

1 62987C 25031G   26257.61368056  .00104030  00000+0  80848-3 0  2575
2 62987  43.0003 302.6401 0001525 267.6880 169.8886 15.70773966    18

Track STARLINK-11539 in real time with AllMySat

Download on the App Store